EW2868 Sai Kung current weather conditions

sailwx.info

Wind from 038

Air temperature 28.9° C
Dewpoint 24.4° C

Last reported at 2018-Sep-23 01:00 UTC.
Time now 2018-Sep-23 02:15 UTC

Location: N 22°21' E 114°14'.
View on Google Maps.

See reports from other nearby stations

  
Tides and Currents Weather Stations Pressure Air Temp Water Temp Dewpoint Dewpoint Depression Visibility Wind Speed Wind Dir Waves Ship Positions
date/time (UTC)wind fromknots sea level pressurealtimeterstation pressurevisibilityair tempwater tempwave heightnotes
2018-Sep-23 01:00 038 28.9
2018-Sep-23 00:50 036 0 gusting 2 28.3
2018-Sep-23 00:40 351 28.3
2018-Sep-23 00:30 351 27.8
2018-Sep-23 00:20 351 28.3
2018-Sep-23 00:10 351 27.8
2018-Sep-23 00:00 351 27.8
2018-Sep-22 23:50 314 0 gusting 2 27.8
2018-Sep-22 23:40 308 27.2
2018-Sep-22 23:30 308 0 gusting 3 26.7
2018-Sep-22 23:20 198 0 gusting 2 26.1
2018-Sep-22 23:10 198 26.1
2018-Sep-22 23:00 198 26.1
2018-Sep-22 22:50 198 26.1
2018-Sep-22 22:40 198 0 gusting 1 26.1
2018-Sep-22 22:30 192 1 gusting 3 26.1
2018-Sep-22 22:20 254 26.1
2018-Sep-22 22:10 254 26.1
2018-Sep-22 22:00 254 26.1
2018-Sep-22 21:50 254 26.1
2018-Sep-22 21:40 254 26.1
2018-Sep-22 21:30 254 25.6
2018-Sep-22 21:20 254 25.6
2018-Sep-22 21:10 254 25.6
2018-Sep-22 21:00 254 25.6
2018-Sep-22 20:50 254 25.6
2018-Sep-22 20:40 254 25.6
2018-Sep-22 20:30 254 25.6
2018-Sep-22 20:20 254 26.1
2018-Sep-22 20:10 254 26.1
2018-Sep-22 20:00 254 26.1
2018-Sep-22 19:50 254 26.1
2018-Sep-22 19:40 254 26.7
2018-Sep-22 19:30 254 26.7
2018-Sep-22 19:20 254 0 gusting 1 26.7
2018-Sep-22 19:10 254 26.7
2018-Sep-22 19:00 254 26.7
2018-Sep-22 18:50 254 26.7
2018-Sep-22 18:40 254 26.7
2018-Sep-22 18:30 254 26.7
2018-Sep-22 18:20 254 26.7
2018-Sep-22 18:10 254 26.7
2018-Sep-22 18:00 254 26.7
2018-Sep-22 17:50 254 26.7
2018-Sep-22 17:40 254 26.7
2018-Sep-22 17:30 254 26.7
2018-Sep-22 17:20 254 26.7
2018-Sep-22 17:10 254 26.7
2018-Sep-22 17:00 254 26.7
2018-Sep-22 16:50 254 26.7
2018-Sep-22 16:40 254 26.7
2018-Sep-22 16:30 254 26.7
2018-Sep-22 16:20 254 26.7
2018-Sep-22 16:10 254 26.7
2018-Sep-22 16:00 254 26.7
2018-Sep-22 15:50 254 26.7
2018-Sep-22 15:40 254 26.7
2018-Sep-22 15:30 254 26.7
2018-Sep-22 15:20 254 26.7
2018-Sep-22 15:10 254 26.7
2018-Sep-22 15:00 254 26.7
2018-Sep-22 14:50 254 26.7
2018-Sep-22 14:40 254 26.7
2018-Sep-22 14:30 254 26.7
2018-Sep-22 14:20 254 27.2
2018-Sep-22 14:10 254 26.7
2018-Sep-22 14:00 254 27.2
2018-Sep-22 13:50 254 27.2
2018-Sep-22 13:40 254 27.2
2018-Sep-22 13:30 254 27.2
2018-Sep-22 13:20 254 27.2
2018-Sep-22 13:10 254 27.8
2018-Sep-22 13:00 254 27.8
2018-Sep-22 12:50 254 27.8
2018-Sep-22 12:40 254 0 gusting 2 28.3
2018-Sep-22 12:30 253 27.8
2018-Sep-22 12:20 253 27.8
2018-Sep-22 12:10 253 27.8
2018-Sep-22 12:00 242 27.8
2018-Sep-22 11:50 242 27.8
2018-Sep-22 11:40 242 27.8
2018-Sep-22 11:30 242 27.8
2018-Sep-22 11:20 242 28.3
2018-Sep-22 11:10 242 0 gusting 1 28.3
2018-Sep-22 11:00 242 28.3
2018-Sep-22 10:50 242 0 gusting 2 28.3
2018-Sep-22 10:40 163 0 gusting 1 28.9
2018-Sep-22 10:30 163 0 gusting 1 28.9
2018-Sep-22 10:20 163 0 gusting 2 28.9
2018-Sep-22 10:10 150 1 gusting 3 28.9
2018-Sep-22 10:00 173 0 gusting 3 28.9
2018-Sep-22 09:50 167 3 gusting 3 28.9
2018-Sep-22 09:40 186 3 gusting 3 29.4
2018-Sep-22 09:30 161 1 gusting 6 29.4
2018-Sep-22 09:20 137 0 gusting 4 29.4
2018-Sep-22 09:10 173 0 gusting 6 29.4
2018-Sep-22 09:00 162 4 gusting 6 30.0
2018-Sep-22 08:50 127 1 gusting 6 30.0
2018-Sep-22 08:40 148 4 gusting 5 30.0
2018-Sep-22 08:30 177 1 gusting 6 30.6
2018-Sep-22 08:20 143 1 gusting 6 30.6
2018-Sep-22 08:10 152 0 gusting 6 30.6
2018-Sep-22 08:00 180 2 gusting 4 30.6
2018-Sep-22 07:50 153 3 gusting 5 30.6
2018-Sep-22 07:40 181 0 gusting 8 31.1
2018-Sep-22 07:30 161 3 gusting 6 31.1
2018-Sep-22 07:20 172 1 gusting 6 31.1
2018-Sep-22 07:10 109 5 gusting 7 31.1
2018-Sep-22 07:00 138 4 gusting 6 31.7
2018-Sep-22 06:50 210 1 gusting 6 32.2
2018-Sep-22 06:40 151 2 gusting 6 31.1
2018-Sep-22 06:30 233 2 gusting 6 31.1
2018-Sep-22 06:20 111 0 gusting 8 31.1
2018-Sep-22 06:10 148 5 gusting 7 31.1
2018-Sep-22 06:00 105 5 gusting 6 31.7
2018-Sep-22 05:50 129 1 gusting 7 31.1
2018-Sep-22 05:40 146 2 gusting 6 32.2
2018-Sep-22 05:30 224 3 gusting 6 31.7
2018-Sep-22 05:20 215 1 gusting 6 31.7
2018-Sep-22 05:10 221 5 gusting 5 31.7
2018-Sep-22 05:00 165 3 gusting 6 31.7
2018-Sep-22 04:50 090 30.6
2018-Sep-22 04:40 172 6 gusting 7 31.7
2018-Sep-22 04:30 168 4 gusting 6 31.1
2018-Sep-22 04:20 155 0 gusting 5 31.1
2018-Sep-22 04:10 173 0 gusting 4 31.1
2018-Sep-22 04:00 154 0 gusting 7 31.1
2018-Sep-22 03:50 201 4 gusting 6 31.7
2018-Sep-22 03:40 157 4 gusting 6 31.1
2018-Sep-22 03:30 215 1 gusting 6 31.7
2018-Sep-22 03:20 170 4 gusting 5 31.1
2018-Sep-22 03:10 173 1 gusting 6 31.1
2018-Sep-22 03:00 227 0 gusting 4 31.1
2018-Sep-22 02:50 198 3 gusting 6 31.1
2018-Sep-22 02:40 254 3 gusting 6 30.6
2018-Sep-22 02:30 115 3 gusting 6 30.6
2018-Sep-22 02:20 162 3 gusting 4 30.0
2018-Sep-22 02:10 134 3 gusting 4 30.0
2018-Sep-22 02:00 125 0 gusting 3 30.0
2018-Sep-22 01:50 098 1 gusting 5 29.4
2018-Sep-22 01:40 209 29.4
2018-Sep-22 01:30 213 1 gusting 4 29.4
2018-Sep-22 01:20 090 0 gusting 3 28.9
2018-Sep-22 01:10 131 29.4
2018-Sep-22 01:00 080 1 gusting 4 28.9
2018-Sep-22 00:50 209 0 gusting 2 28.9
2018-Sep-22 00:40 248 28.9
2018-Sep-22 00:30 161 28.9
2018-Sep-22 00:20 292 28.3
2018-Sep-22 00:10 294 27.8
2018-Sep-22 00:00 294 27.8
2018-Sep-21 23:50 294 27.2
2018-Sep-21 23:40 294 26.7
2018-Sep-21 23:30 294 25.6
2018-Sep-21 23:20 294 25.6
2018-Sep-21 23:10 309 25.6
2018-Sep-21 23:00 309 25.0
2018-Sep-21 22:50 309 24.4
2018-Sep-21 22:40 309 24.4
2018-Sep-21 22:30 309 24.4
2018-Sep-21 22:20 309 24.4
2018-Sep-21 22:10 309 24.4
2018-Sep-21 22:00 323 24.4
2018-Sep-21 21:50 323 24.4
2018-Sep-21 21:40 323 24.4
2018-Sep-21 21:30 323 24.4
2018-Sep-21 21:20 323 24.4
2018-Sep-21 21:10 323 24.4
2018-Sep-21 21:00 323 24.4
2018-Sep-21 20:50 323 24.4
2018-Sep-21 20:40 323 24.4
2018-Sep-21 20:30 323 24.4
2018-Sep-21 20:20 323 24.4
2018-Sep-21 20:10 323 24.4
2018-Sep-21 20:00 323 24.4
2018-Sep-21 19:50 323 24.4
2018-Sep-21 19:40 323 24.4
2018-Sep-21 19:30 323 24.4
2018-Sep-21 19:20 323 25.0
2018-Sep-21 19:10 323 24.4
2018-Sep-21 19:00 323 24.4
2018-Sep-21 18:50 323 24.4
2018-Sep-21 18:40 323 24.4
2018-Sep-21 18:30 323 25.0
2018-Sep-21 18:20 323 25.0
2018-Sep-21 18:10 323 25.0
2018-Sep-21 18:00 323 25.0
2018-Sep-21 17:50 323 25.0
2018-Sep-21 17:40 323 25.0
2018-Sep-21 17:30 323 25.0
2018-Sep-21 17:20 323 25.0
2018-Sep-21 17:10 323 25.0
2018-Sep-21 17:00 323 25.0
2018-Sep-21 16:50 323 25.0
2018-Sep-21 16:40 323 25.0
2018-Sep-21 16:30 323 25.6
2018-Sep-21 16:20 323 25.6
2018-Sep-21 16:10 323 25.6
2018-Sep-21 16:00 323 25.6
2018-Sep-21 15:49 323 25.6
2018-Sep-21 15:39 323 25.6
2018-Sep-21 15:29 323 25.6
2018-Sep-21 15:19 323 25.6
2018-Sep-21 15:09 323 25.6
2018-Sep-21 14:59 323 26.1
2018-Sep-21 14:49 323 25.6
2018-Sep-21 14:39 323 25.6
2018-Sep-21 14:29 323 0 gusting 1 26.1
2018-Sep-21 14:19 323 26.1
2018-Sep-21 14:09 323 26.1
2018-Sep-21 13:59 323 0 gusting 1 26.1
2018-Sep-21 13:49 323 25.6
2018-Sep-21 13:39 323 26.1
2018-Sep-21 13:29 323 26.1
2018-Sep-21 13:19 323 26.1
2018-Sep-21 13:09 323 26.1
2018-Sep-21 12:59 323 0 gusting 1 26.7
2018-Sep-21 12:49 323 26.7
2018-Sep-21 12:39 323 26.7
2018-Sep-21 12:29 323 26.7
2018-Sep-21 12:19 323 26.7
2018-Sep-21 12:09 323 27.2
2018-Sep-21 11:59 323 27.2
2018-Sep-21 11:49 323 27.2
2018-Sep-21 11:39 323 27.2
2018-Sep-21 11:29 323 27.8
2018-Sep-21 11:19 344 27.8
2018-Sep-21 11:09 355 27.8
2018-Sep-21 10:59 355 27.8
2018-Sep-21 10:49 109 28.3
2018-Sep-21 10:39 109 28.3
2018-Sep-21 10:29 111 0 gusting 2 28.9
2018-Sep-21 10:19 117 1 gusting 1 28.9
2018-Sep-21 10:09 117 29.4
2018-Sep-21 09:59 117 29.4
2018-Sep-21 09:49 117 1 gusting 3 30.0
2018-Sep-21 09:39 136 2 gusting 3 30.0
2018-Sep-21 09:29 140 0 gusting 6 30.0
2018-Sep-21 09:19 116 3 gusting 6 30.0
2018-Sep-21 09:09 143 2 gusting 6 30.0
2018-Sep-21 08:59 130 30.0
2018-Sep-21 08:49 126 2 gusting 6 30.6
2018-Sep-21 08:39 105 5 gusting 6 30.6
2018-Sep-21 08:29 111 5 gusting 7 30.6
2018-Sep-21 08:19 094 1 gusting 7 30.6
2018-Sep-21 08:09 107 3 gusting 8 30.6
2018-Sep-21 07:59 071 30.6
2018-Sep-21 07:49 145 5 gusting 7 31.1
2018-Sep-21 07:39 138 1 gusting 6 31.1
2018-Sep-21 07:29 088 1 gusting 8 30.6
2018-Sep-21 07:19 069 5 gusting 6 31.1
2018-Sep-21 07:09 086 6 gusting 7 30.6
2018-Sep-21 06:59 141 2 gusting 7 30.6
2018-Sep-21 06:49 111 0 gusting 7 31.1
2018-Sep-21 06:39 078 3 gusting 7 31.1
2018-Sep-21 06:29 119 6 gusting 8 30.6
2018-Sep-21 06:19 107 8 gusting 8 30.6
2018-Sep-21 06:09 150 5 gusting 8 31.1
2018-Sep-21 05:59 119 9 gusting 9 31.1
2018-Sep-21 05:49 135 3 gusting 9 31.1
2018-Sep-21 05:39 146 1 gusting 9 30.6
2018-Sep-21 05:29 102 7 gusting 8 31.1
2018-Sep-21 05:19 064 3 gusting 7 31.7
2018-Sep-21 05:09 067 2 gusting 9 31.1
2018-Sep-21 04:59 128 6 gusting 8 31.1
2018-Sep-21 04:49 103 3 gusting 8 31.1
2018-Sep-21 04:39 158 2 gusting 7 31.1
2018-Sep-21 04:29 132 0 gusting 8 31.1
2018-Sep-21 04:19 142 4 gusting 7 31.1
2018-Sep-21 04:09 100 5 gusting 8 31.1
2018-Sep-21 03:59 163 3 gusting 6 31.1
2018-Sep-21 03:49 132 3 gusting 6 31.1
2018-Sep-21 03:39 103 1 gusting 7 31.1
2018-Sep-21 03:29 153 3 gusting 7 31.7
2018-Sep-21 03:19 232 0 gusting 6 31.7
2018-Sep-21 03:09 088 1 gusting 6 31.1
2018-Sep-21 02:59 192 2 gusting 6 31.1
2018-Sep-21 02:49 164 4 gusting 5 31.7
2018-Sep-21 02:39 100 3 gusting 6 30.6
2018-Sep-21 02:29 106 6 gusting 6 30.6
2018-Sep-21 02:19 134 4 gusting 7 30.6
2018-Sep-21 02:09 108 3 gusting 6 30.6